Weather in Herzliya

Israel     32°09′52″N   34°50′31″E
temp.,
°C
wind,
m/s
gust,
m/s
humid.,
%
clouds,
%
prec.,
mm/h
press.,
hPa
HPBL,
m
23 october, sat
sat2300:00+24nnw67540 0.0 1019999
03:00+24nnw67550 0.0 10181083
06:00+23nnw56602 0.0 10181074
09:00+24nnw555717 0.0 10191384
12:00+24nw55551 0.0 10191398
15:00+24nnw66560 0.0 10181379
18:00+24nnw66580 0.0 10181161
21:00+23nnw44560 0.0 10191131
24 october, sun
sun2400:00+23nnw33560 0.0 10191087
03:00+22nnw33560 0.0 10191036
06:00+22n12571 0.0 10181008
09:00+22se01540 0.0 1019981
12:00+23nw32530 0.0 10181063
15:00+23nw44560 0.0 1017926
18:00+23nnw54600 0.0 1017781
21:00+23nnw33610 0.0 1017767
25 october, mon
mon2500:00+22nnw32610 0.0 1017767
03:00+22nnw22600 0.0 1016823
06:00+22nne12605 0.0 1016851
09:00+22sse216112 0.0 1017674
12:00+23nw325719 0.0 10161071
15:00+23nnw4357100 0.0 1015899
18:00+23nnw555836 0.0 1015809
21:00+22n34593 0.0 1016779
26 october, tue
tue2600:00+22n33594 0.0 1016775
03:00+22n33600 0.0 1016841
06:00+22ne23610 0.0 1016740
09:00+22e22600 0.0 1016470
12:00+23nnw23580 0.0 1016584
15:00+24nnw55575 0.0 1014803
18:00+24n67595 0.0 1015725
21:00+23n66620 0.0 1016683
27 october, wed
wed2700:00+23nne45562 0.0 1016626
03:00+23nne45600 0.0 1015630
06:00+23nne45620 0.0 1015585
09:00+22ene33550 0.0 1016245
12:00+25nnw44380 0.0 1016576
15:00+25nnw76480 0.0 1015548
18:00+24n88510 0.0 1015598
21:00+24n67550 0.0 1016574